Time,TemperatureF,DewpointF,PressureIn,WindDirection,WindDirectionDegrees,WindSpeedMPH,WindSpeedGustMPH,Humidity,HourlyPrecipIn,Conditions,Clouds,dailyrainin,SoftwareType,DateUTC
2013-12-31 00:01:00,12.5,4.9,30.16,SSW,211,0.0,0.0,71,0.00,,CLR,0.00,VWS V14.01,2013-12-31 05:01:00,
2013-12-31 00:02:00,12.5,4.9,30.16,SSW,211,0.0,0.0,71,0.00,,CLR,0.00,VWS V14.01,2013-12-31 05:02:00,
2013-12-31 00:07:00,12.3,4.7,30.16,SSW,211,0.0,0.0,71,0.00,,CLR,0.00,VWS V14.01,2013-12-31 05:07:00,
2013-12-31 00:12:00,12.2,4.9,30.17,SSW,211,0.0,0.0,72,0.00,,CLR,0.00,VWS V14.01,2013-12-31 05:12:00,
2013-12-31 00:17:00,12.2,4.9,30.17,SSW,211,0.0,4.0,72,0.00,,CLR,0.00,VWS V14.01,2013-12-31 05:17:00,
2013-12-31 00:22:00,12.2,4.9,30.17,SSW,211,0.0,8.0,72,0.00,,CLR,0.00,VWS V14.01,2013-12-31 05:22:00,
2013-12-31 00:27:00,12.2,4.9,30.16,SSW,211,0.0,0.0,72,0.00,,CLR,0.00,VWS V14.01,2013-12-31 05:27:00,
2013-12-31 00:32:00,12.2,4.9,30.16,SSW,211,0.0,9.0,72,0.00,,CLR,0.00,VWS V14.01,2013-12-31 05:32:00,
2013-12-31 00:37:00,12.0,4.7,30.16,SSW,211,0.0,0.0,72,0.00,,CLR,0.00,VWS V14.01,2013-12-31 05:37:00,
2013-12-31 00:42:00,12.0,5.0,30.16,SSW,211,0.0,6.0,73,0.00,,CLR,0.00,VWS V14.01,2013-12-31 05:42:00,
2013-12-31 00:47:00,12.0,5.0,30.16,SSW,211,0.0,0.0,73,0.00,,CLR,0.00,VWS V14.01,2013-12-31 05:47:00,
2013-12-31 00:52:00,11.8,4.8,30.16,SSW,211,0.0,1.0,73,0.00,,CLR,0.00,VWS V14.01,2013-12-31 05:52:00,
2013-12-31 00:57:00,11.7,4.7,30.15,SSW,211,4.0,9.0,73,0.00,,CLR,0.00,VWS V14.01,2013-12-31 05:57:00,
2013-12-31 01:02:00,11.7,4.7,30.16,SSW,211,0.0,0.0,73,0.00,,CLR,0.00,VWS V14.01,2013-12-31 06:02:00,
2013-12-31 01:07:00,11.7,5.0,30.15,SSW,211,0.0,0.0,74,0.00,,CLR,0.00,VWS V14.01,2013-12-31 06:07:00,
2013-12-31 01:12:00,11.5,4.8,30.14,SSW,211,0.0,4.0,74,0.00,,CLR,0.00,VWS V14.01,2013-12-31 06:12:00,
2013-12-31 01:17:00,11.5,4.8,30.15,SSW,211,0.0,3.0,74,0.00,,CLR,0.00,VWS V14.01,2013-12-31 06:17:00,
2013-12-31 01:22:00,11.5,4.8,30.15,SSW,211,0.0,0.0,74,0.00,,CLR,0.00,VWS V14.01,2013-12-31 06:22:00,
2013-12-31 01:27:00,11.5,4.8,30.15,SSW,211,0.0,0.0,74,0.00,,CLR,0.00,VWS V14.01,2013-12-31 06:27:00,
2013-12-31 01:32:00,11.5,4.8,30.15,SSW,211,0.0,2.0,74,0.00,,CLR,0.00,VWS V14.01,2013-12-31 06:32:00,
2013-12-31 01:37:00,11.5,4.8,30.15,SSW,211,0.0,0.0,74,0.00,,CLR,0.00,VWS V14.01,2013-12-31 06:37:00,
2013-12-31 01:42:00,11.5,4.8,30.16,SSW,211,5.0,7.0,74,0.00,,CLR,0.00,VWS V14.01,2013-12-31 06:42:00,
2013-12-31 01:47:00,11.5,4.8,30.16,SSW,211,0.0,8.0,74,0.00,,CLR,0.00,VWS V14.01,2013-12-31 06:47:00,
2013-12-31 01:52:00,11.7,5.0,30.16,SSW,211,12.0,12.0,74,0.00,,CLR,0.00,VWS V14.01,2013-12-31 06:52:00,
2013-12-31 01:57:00,11.7,5.0,30.16,SSW,211,0.0,0.0,74,0.00,,CLR,0.00,VWS V14.01,2013-12-31 06:57:00,
2013-12-31 02:03:00,11.5,4.8,30.16,SSW,211,0.0,0.0,74,0.00,,FEW250,0.00,VWS V14.01,2013-12-31 07:03:00,
2013-12-31 02:08:00,11.3,4.6,30.16,SSW,211,0.0,3.0,74,0.00,,FEW250,0.00,VWS V14.01,2013-12-31 07:08:00,
2013-12-31 02:13:00,11.5,4.8,30.16,SSW,211,0.0,3.0,74,0.00,,FEW250,0.00,VWS V14.01,2013-12-31 07:13:00,
2013-12-31 02:18:00,11.5,4.8,30.16,SSW,211,0.0,0.0,74,0.00,,FEW250,0.00,VWS V14.01,2013-12-31 07:18:00,
2013-12-31 02:23:00,11.7,5.0,30.16,SSW,211,0.0,0.0,74,0.00,,FEW250,0.00,VWS V14.01,2013-12-31 07:23:00,
2013-12-31 02:28:00,11.7,5.3,30.16,SSW,211,0.0,0.0,75,0.00,,FEW250,0.00,VWS V14.01,2013-12-31 07:28:00,
2013-12-31 02:33:00,11.8,5.1,30.15,SSW,211,0.0,0.0,74,0.00,,FEW250,0.00,VWS V14.01,2013-12-31 07:33:00,
2013-12-31 02:38:00,12.0,5.3,30.15,SSW,211,0.0,0.0,74,0.00,,FEW250,0.00,VWS V14.01,2013-12-31 07:38:00,
2013-12-31 02:43:00,12.0,5.3,30.16,SSW,211,0.0,0.0,74,0.00,,FEW250,0.00,VWS V14.01,2013-12-31 07:43:00,
2013-12-31 02:48:00,12.2,5.5,30.16,SSW,211,0.0,0.0,74,0.00,,FEW250,0.00,VWS V14.01,2013-12-31 07:48:00,
2013-12-31 02:53:00,12.2,5.5,30.16,SSW,211,7.0,7.0,74,0.00,,FEW250,0.00,VWS V14.01,2013-12-31 07:53:00,
2013-12-31 02:58:00,12.3,5.3,30.15,SSW,211,0.0,0.0,73,0.00,,FEW250,0.00,VWS V14.01,2013-12-31 07:58:00,
2013-12-31 03:03:00,12.5,5.5,30.15,SSW,211,2.0,5.0,73,0.00,,BKN250,0.00,VWS V14.01,2013-12-31 08:03:00,
2013-12-31 03:08:00,12.5,5.2,30.15,SSW,211,0.0,0.0,72,0.00,,BKN250,0.00,VWS V14.01,2013-12-31 08:08:00,
2013-12-31 03:13:00,12.5,5.2,30.15,SSW,211,0.0,0.0,72,0.00,,BKN250,0.00,VWS V14.01,2013-12-31 08:13:00,
2013-12-31 03:18:00,12.5,5.2,30.15,SSW,211,0.0,1.0,72,0.00,,BKN250,0.00,VWS V14.01,2013-12-31 08:18:00,
2013-12-31 03:23:00,12.5,5.2,30.15,SSW,211,0.0,0.0,72,0.00,,BKN250,0.00,VWS V14.01,2013-12-31 08:23:00,
2013-12-31 03:28:00,12.5,5.2,30.15,SSW,211,3.0,5.0,72,0.00,,BKN250,0.00,VWS V14.01,2013-12-31 08:28:00,
2013-12-31 03:33:00,12.5,5.2,30.15,SSW,211,0.0,0.0,72,0.00,,BKN250,0.00,VWS V14.01,2013-12-31 08:33:00,
2013-12-31 03:38:00,12.5,5.5,30.15,SSW,211,0.0,0.0,73,0.00,,BKN250,0.00,VWS V14.01,2013-12-31 08:38:00,
2013-12-31 03:43:00,12.5,5.2,30.15,SSW,211,0.0,0.0,72,0.00,,BKN250,0.00,VWS V14.01,2013-12-31 08:43:00,
2013-12-31 03:48:00,12.3,5.0,30.15,SSW,211,0.0,0.0,72,0.00,,BKN250,0.00,VWS V14.01,2013-12-31 08:48:00,
2013-12-31 03:53:00,12.3,4.7,30.14,SSW,211,0.0,0.0,71,0.00,,BKN250,0.00,VWS V14.01,2013-12-31 08:53:00,
2013-12-31 03:58:00,12.2,4.6,30.14,SSW,211,0.0,0.0,71,0.00,,BKN250,0.00,VWS V14.01,2013-12-31 08:58:00,
2013-12-31 04:03:00,12.2,4.6,30.14,SSW,211,0.0,0.0,71,0.00,,OVC250,0.00,VWS V14.01,2013-12-31 09:03:00,
2013-12-31 04:08:00,12.2,4.6,30.14,SSW,211,0.0,0.0,71,0.00,,OVC250,0.00,VWS V14.01,2013-12-31 09:08:00,
2013-12-31 04:13:00,12.2,4.6,30.14,SSW,211,0.0,0.0,71,0.00,,OVC250,0.00,VWS V14.01,2013-12-31 09:13:00,
2013-12-31 04:18:00,12.2,4.6,30.14,SSW,211,0.0,0.0,71,0.00,,OVC250,0.00,VWS V14.01,2013-12-31 09:18:00,
2013-12-31 04:23:00,12.2,4.6,30.14,SSW,211,0.0,0.0,71,0.00,,OVC250,0.00,VWS V14.01,2013-12-31 09:23:00,
2013-12-31 04:28:00,12.2,4.3,30.14,SSW,211,0.0,2.0,70,0.00,,OVC250,0.00,VWS V14.01,2013-12-31 09:28:00,
2013-12-31 04:33:00,12.2,4.3,30.15,SSW,211,0.0,0.0,70,0.00,,OVC250,0.00,VWS V14.01,2013-12-31 09:33:00,
2013-12-31 04:38:00,12.2,4.3,30.15,SSW,211,0.0,0.0,70,0.00,,OVC250,0.00,VWS V14.01,2013-12-31 09:38:00,
2013-12-31 04:43:00,12.2,4.3,30.14,SSW,211,0.0,0.0,70,0.00,,OVC250,0.00,VWS V14.01,2013-12-31 09:43:00,
2013-12-31 04:49:00,12.0,4.1,30.15,SSW,211,0.0,0.0,70,0.00,,OVC250,0.00,VWS V14.01,2013-12-31 09:49:00,
2013-12-31 04:53:00,11.8,3.9,30.14,SSW,211,0.0,0.0,70,0.00,,OVC250,0.00,VWS V14.01,2013-12-31 09:53:00,
2013-12-31 04:59:00,11.8,4.2,30.14,SSW,211,0.0,0.0,71,0.00,,OVC250,0.00,VWS V14.01,2013-12-31 09:59:00,
2013-12-31 05:04:00,11.7,4.1,30.14,SSW,211,0.0,0.0,71,0.00,,BKN250,0.00,VWS V14.01,2013-12-31 10:04:00,
2013-12-31 05:09:00,11.5,3.9,30.14,SSW,211,0.0,0.0,71,0.00,,BKN250,0.00,VWS V14.01,2013-12-31 10:09:00,
2013-12-31 05:14:00,11.3,3.7,30.14,SSW,211,0.0,0.0,71,0.00,,BKN250,0.00,VWS V14.01,2013-12-31 10:14:00,
2013-12-31 05:19:00,11.1,3.5,30.14,SSW,211,0.0,0.0,71,0.00,,BKN250,0.00,VWS V14.01,2013-12-31 10:19:00,
2013-12-31 05:24:00,11.0,3.5,30.14,SSW,211,0.0,0.0,71,0.00,,BKN250,0.00,VWS V14.01,2013-12-31 10:24:00,
2013-12-31 05:29:00,10.8,3.6,30.14,SSW,211,0.0,0.0,72,0.00,,BKN250,0.00,VWS V14.01,2013-12-31 10:29:00,
2013-12-31 05:34:00,10.6,3.4,30.14,SSW,211,0.0,0.0,72,0.00,,BKN250,0.00,VWS V14.01,2013-12-31 10:34:00,
2013-12-31 05:39:00,10.5,3.6,30.13,SSW,211,0.0,0.0,73,0.00,,BKN250,0.00,VWS V14.01,2013-12-31 10:39:00,
2013-12-31 05:44:00,10.5,3.6,30.13,SSW,211,0.0,0.0,73,0.00,,BKN250,0.00,VWS V14.01,2013-12-31 10:44:00,
2013-12-31 05:49:00,10.5,3.6,30.14,SSW,211,0.0,0.0,73,0.00,,BKN250,0.00,VWS V14.01,2013-12-31 10:49:00,
2013-12-31 05:54:00,10.5,3.6,30.14,SSW,211,0.0,0.0,73,0.00,,BKN250,0.00,VWS V14.01,2013-12-31 10:54:00,
2013-12-31 05:59:00,10.5,3.6,30.14,SSW,211,0.0,0.0,73,0.00,,BKN250,0.00,VWS V14.01,2013-12-31 10:59:00,
2013-12-31 06:04:00,10.5,3.3,30.14,SSW,211,0.0,0.0,72,0.00,,BKN250,0.00,VWS V14.01,2013-12-31 11:04:00,
2013-12-31 06:09:00,10.3,3.4,30.13,SSW,211,0.0,0.0,73,0.00,,BKN250,0.00,VWS V14.01,2013-12-31 11:09:00,
2013-12-31 06:14:00,10.3,3.4,30.14,SSW,211,0.0,0.0,73,0.00,,BKN250,0.00,VWS V14.01,2013-12-31 11:14:00,
2013-12-31 06:19:00,10.3,3.4,30.14,SSW,211,0.0,0.0,73,0.00,,BKN250,0.00,VWS V14.01,2013-12-31 11:19:00,
2013-12-31 06:24:00,10.5,3.6,30.14,SSW,211,0.0,0.0,73,0.00,,BKN250,0.00,VWS V14.01,2013-12-31 11:24:00,
2013-12-31 06:29:00,10.3,3.4,30.14,SSW,211,0.0,0.0,73,0.00,,BKN250,0.00,VWS V14.01,2013-12-31 11:29:00,
2013-12-31 06:34:00,10.3,3.7,30.15,SSW,211,0.0,0.0,74,0.00,,BKN250,0.00,VWS V14.01,2013-12-31 11:34:00,
2013-12-31 06:39:00,10.1,3.5,30.15,SSW,211,0.0,0.0,74,0.00,,BKN250,0.00,VWS V14.01,2013-12-31 11:39:00,
2013-12-31 06:44:00,10.1,3.5,30.15,SSW,211,0.0,0.0,74,0.00,,BKN250,0.00,VWS V14.01,2013-12-31 11:44:00,
2013-12-31 06:49:00,9.9,3.6,30.15,SSW,211,0.0,0.0,75,0.00,,BKN250,0.00,VWS V14.01,2013-12-31 11:49:00,
2013-12-31 06:54:00,9.9,3.6,30.15,SSW,211,0.0,0.0,75,0.00,,BKN250,0.00,VWS V14.01,2013-12-31 11:54:00,
2013-12-31 06:59:00,9.8,3.8,30.15,SSW,211,0.0,0.0,76,0.00,,BKN250,0.00,VWS V14.01,2013-12-31 11:59:00,
2013-12-31 07:04:00,9.8,3.8,30.15,SSW,211,0.0,0.0,76,0.00,,BKN250,0.00,VWS V14.01,2013-12-31 12:04:00,
2013-12-31 07:10:00,9.6,3.6,30.14,SSW,211,0.0,0.0,76,0.00,,BKN250,0.00,VWS V14.01,2013-12-31 12:10:00,
2013-12-31 07:15:00,9.4,3.4,30.14,SSW,211,0.0,0.0,76,0.00,,BKN250,0.00,VWS V14.01,2013-12-31 12:15:00,
2013-12-31 07:20:00,9.4,3.7,30.13,SSW,211,0.0,0.0,77,0.00,,BKN250,0.00,VWS V14.01,2013-12-31 12:20:00,
2013-12-31 07:25:00,9.3,3.6,30.13,SSW,211,0.0,0.0,77,0.00,,BKN250,0.00,VWS V14.01,2013-12-31 12:25:00,
2013-12-31 07:30:00,9.1,3.7,30.13,SSW,211,0.0,0.0,78,0.00,,BKN250,0.00,VWS V14.01,2013-12-31 12:30:00,
2013-12-31 07:35:00,8.9,3.7,30.12,SSW,211,0.0,0.0,79,0.00,,BKN250,0.00,VWS V14.01,2013-12-31 12:35:00,
2013-12-31 07:40:00,8.7,3.5,30.12,SSW,211,0.0,0.0,79,0.00,,BKN250,0.00,VWS V14.01,2013-12-31 12:40:00,
2013-12-31 07:45:00,8.7,3.8,30.13,SSW,211,0.0,0.0,80,0.00,,BKN250,0.00,VWS V14.01,2013-12-31 12:45:00,
2013-12-31 07:50:00,8.7,4.1,30.13,SSW,211,0.0,0.0,81,0.00,,BKN250,0.00,VWS V14.01,2013-12-31 12:50:00,
2013-12-31 07:55:00,8.9,4.3,30.13,SSW,211,0.0,0.0,81,0.00,,BKN250,0.00,VWS V14.01,2013-12-31 12:55:00,
2013-12-31 08:00:00,9.3,4.9,30.12,SSW,211,0.0,0.0,82,0.00,,BKN250,0.00,VWS V14.01,2013-12-31 13:00:00,
2013-12-31 08:05:00,9.6,5.2,30.12,SSW,211,0.0,0.0,82,0.00,,SCT250,0.00,VWS V14.01,2013-12-31 13:05:00,
2013-12-31 08:10:00,10.1,5.7,30.12,SSW,211,0.0,0.0,82,0.00,,SCT250,0.00,VWS V14.01,2013-12-31 13:10:00,
2013-12-31 08:15:00,10.5,5.8,30.12,SSW,211,0.0,0.0,81,0.00,,SCT250,0.00,VWS V14.01,2013-12-31 13:15:00,
2013-12-31 08:20:00,11.1,6.2,30.13,SSW,211,0.0,0.0,80,0.00,,SCT250,0.00,VWS V14.01,2013-12-31 13:20:00,
2013-12-31 08:25:00,11.7,5.9,30.13,SSW,211,0.0,0.0,77,0.00,,SCT250,0.00,VWS V14.01,2013-12-31 13:25:00,
2013-12-31 08:30:00,12.0,5.6,30.14,SSW,211,0.0,0.0,75,0.00,,SCT250,0.00,VWS V14.01,2013-12-31 13:30:00,
2013-12-31 08:35:00,12.3,5.6,30.14,SSW,211,0.0,0.0,74,0.00,,SCT250,0.00,VWS V14.01,2013-12-31 13:35:00,
2013-12-31 08:40:00,12.5,5.8,30.14,SSW,211,0.0,0.0,74,0.00,,SCT250,0.00,VWS V14.01,2013-12-31 13:40:00,
2013-12-31 08:45:00,12.9,6.5,30.14,SSW,211,0.0,0.0,75,0.00,,SCT250,0.00,VWS V14.01,2013-12-31 13:45:00,
2013-12-31 08:50:00,13.0,6.0,30.14,SSW,211,0.0,0.0,73,0.00,,SCT250,0.00,VWS V14.01,2013-12-31 13:50:00,
2013-12-31 08:56:00,13.2,6.2,30.15,SSW,211,2.0,7.0,73,0.00,,SCT250,0.00,VWS V14.01,2013-12-31 13:56:00,
2013-12-31 09:01:00,13.2,6.5,30.14,SSW,211,0.0,5.0,74,0.00,,SCT250,0.00,VWS V14.01,2013-12-31 14:01:00,
2013-12-31 09:06:00,13.4,7.0,30.15,SSW,211,0.0,10.0,75,0.00,,SCT250,0.00,VWS V14.01,2013-12-31 14:06:00,
2013-12-31 09:11:00,13.5,6.8,30.15,SSW,211,0.0,0.0,74,0.00,,SCT250,0.00,VWS V14.01,2013-12-31 14:11:00,
2013-12-31 09:16:00,13.4,6.4,30.15,SSW,211,1.0,6.0,73,0.00,,SCT250,0.00,VWS V14.01,2013-12-31 14:16:00,
2013-12-31 09:21:00,13.5,6.2,30.15,SSW,211,0.0,0.0,72,0.00,,SCT250,0.00,VWS V14.01,2013-12-31 14:21:00,
2013-12-31 09:26:00,13.7,6.1,30.14,SSW,211,0.0,5.0,71,0.00,,SCT250,0.00,VWS V14.01,2013-12-31 14:26:00,
2013-12-31 09:31:00,14.0,6.7,30.14,SSW,211,0.0,0.0,72,0.00,,SCT250,0.00,VWS V14.01,2013-12-31 14:31:00,
2013-12-31 09:36:00,14.2,6.5,30.14,SSW,211,0.0,4.0,71,0.00,,SCT250,0.00,VWS V14.01,2013-12-31 14:36:00,
2013-12-31 09:41:00,14.3,6.6,30.14,SSW,211,7.0,9.0,71,0.00,,SCT250,0.00,VWS V14.01,2013-12-31 14:41:00,
2013-12-31 09:46:00,14.3,6.6,30.14,SSW,211,6.0,6.0,71,0.00,,SCT250,0.00,VWS V14.01,2013-12-31 14:46:00,
2013-12-31 09:51:00,14.5,6.5,30.14,SSW,211,0.0,0.0,70,0.00,,SCT250,0.00,VWS V14.01,2013-12-31 14:51:00,
2013-12-31 09:56:00,15.0,7.3,30.13,SSW,211,0.0,0.0,71,0.00,,SCT250,0.00,VWS V14.01,2013-12-31 14:56:00,
2013-12-31 10:01:00,15.0,6.7,30.13,SSW,211,1.0,6.0,69,0.00,,SCT250,0.00,VWS V14.01,2013-12-31 15:01:00,
2013-12-31 10:06:00,15.5,7.5,30.13,SSW,211,0.0,0.0,70,0.00,,BKN140,0.00,VWS V14.01,2013-12-31 15:06:00,
2013-12-31 10:11:00,15.6,6.6,30.12,SSW,211,0.0,1.0,67,0.00,,BKN140,0.00,VWS V14.01,2013-12-31 15:11:00,
2013-12-31 10:16:00,15.8,6.5,30.11,SSW,211,0.0,0.0,66,0.00,,BKN140,0.00,VWS V14.01,2013-12-31 15:16:00,
2013-12-31 10:21:00,15.9,6.2,30.11,SSW,211,0.0,7.0,65,0.00,,BKN140,0.00,VWS V14.01,2013-12-31 15:21:00,
2013-12-31 10:26:00,16.3,6.9,30.12,SSW,211,2.0,6.0,66,0.00,,BKN140,0.00,VWS V14.01,2013-12-31 15:26:00,
2013-12-31 10:31:00,17.1,7.7,30.12,SSW,211,2.0,6.0,66,0.00,,BKN140,0.00,VWS V14.01,2013-12-31 15:31:00,
2013-12-31 10:36:00,17.5,6.7,30.12,SSW,211,0.0,8.0,62,0.00,,BKN140,0.00,VWS V14.01,2013-12-31 15:36:00,
2013-12-31 10:41:00,17.7,6.9,30.11,SSW,211,0.0,4.0,62,0.00,,BKN140,0.00,VWS V14.01,2013-12-31 15:41:00,
2013-12-31 10:46:00,18.3,7.1,30.11,SSW,211,1.0,16.0,61,0.00,,BKN140,0.00,VWS V14.01,2013-12-31 15:46:00,
2013-12-31 10:51:00,18.8,7.2,30.11,SSW,211,6.0,7.0,60,0.00,,BKN140,0.00,VWS V14.01,2013-12-31 15:51:00,
2013-12-31 10:56:00,19.4,7.8,30.11,SSW,211,2.0,10.0,60,0.00,,BKN140,0.00,VWS V14.01,2013-12-31 15:56:00,
2013-12-31 11:02:00,19.9,7.9,30.10,SSW,211,2.0,10.0,59,0.00,,BKN140,0.00,VWS V14.01,2013-12-31 16:02:00,
2013-12-31 11:07:00,19.6,6.5,30.11,SSW,211,7.0,12.0,56,0.00,,SCT250,0.00,VWS V14.01,2013-12-31 16:07:00,
2013-12-31 11:12:00,19.7,7.3,30.11,SSW,211,2.0,13.0,58,0.00,,SCT250,0.00,VWS V14.01,2013-12-31 16:12:00,
2013-12-31 11:17:00,20.2,8.2,30.11,SSW,211,0.0,3.0,59,0.00,,SCT250,0.00,VWS V14.01,2013-12-31 16:17:00,
2013-12-31 11:22:00,20.5,8.5,30.10,SSW,211,2.0,9.0,59,0.00,,SCT250,0.00,VWS V14.01,2013-12-31 16:22:00,
2013-12-31 11:27:00,20.4,7.2,30.10,SSW,211,5.0,16.0,56,0.00,,SCT250,0.00,VWS V14.01,2013-12-31 16:27:00,
2013-12-31 11:32:00,20.8,8.0,30.10,SSW,211,2.0,15.0,57,0.00,,SCT250,0.00,VWS V14.01,2013-12-31 16:32:00,
2013-12-31 11:37:00,21.2,8.4,30.09,SSW,211,4.0,9.0,57,0.00,,SCT250,0.00,VWS V14.01,2013-12-31 16:37:00,
2013-12-31 11:42:00,21.0,7.8,30.09,SSW,211,1.0,13.0,56,0.00,,SCT250,0.00,VWS V14.01,2013-12-31 16:42:00,
2013-12-31 11:47:00,21.2,8.0,30.09,SSW,211,8.0,23.0,56,0.00,,SCT250,0.00,VWS V14.01,2013-12-31 16:47:00,
2013-12-31 11:52:00,21.2,8.4,30.08,SSW,211,9.0,24.0,57,0.00,,SCT250,0.00,VWS V14.01,2013-12-31 16:52:00,
2013-12-31 11:57:00,20.8,8.0,30.08,SSW,211,5.0,28.0,57,0.00,,SCT250,0.00,VWS V14.01,2013-12-31 16:57:00,
2013-12-31 12:03:00,20.8,8.4,30.08,SSW,211,8.0,14.0,58,0.00,,BKN250,0.00,VWS V14.01,2013-12-31 17:03:00,
2013-12-31 12:08:00,21.2,8.7,30.08,SSW,211,5.0,12.0,58,0.00,,BKN250,0.00,VWS V14.01,2013-12-31 17:08:00,
2013-12-31 12:13:00,21.2,8.7,30.08,SSW,211,15.0,15.0,58,0.00,,BKN250,0.00,VWS V14.01,2013-12-31 17:13:00,
2013-12-31 12:18:00,21.3,9.2,30.08,SSW,211,0.0,9.0,59,0.00,,BKN250,0.00,VWS V14.01,2013-12-31 17:18:00,
2013-12-31 12:23:00,21.8,10.1,30.07,SSW,211,5.0,8.0,60,0.00,,BKN250,0.00,VWS V14.01,2013-12-31 17:23:00,
2013-12-31 12:28:00,21.9,10.5,30.07,SSW,211,5.0,16.0,61,0.00,,BKN250,0.00,VWS V14.01,2013-12-31 17:28:00,
2013-12-31 12:33:00,21.8,10.1,30.07,SSW,211,2.0,18.0,60,0.00,,BKN250,0.00,VWS V14.01,2013-12-31 17:33:00,
2013-12-31 12:38:00,22.4,10.6,30.06,SSW,211,4.0,13.0,60,0.00,,BKN250,0.00,VWS V14.01,2013-12-31 17:38:00,
2013-12-31 12:43:00,22.7,10.5,30.06,SSW,211,4.0,11.0,59,0.00,,BKN250,0.00,VWS V14.01,2013-12-31 17:43:00,
2013-12-31 12:48:00,22.4,9.9,30.06,SSW,211,1.0,12.0,58,0.00,,BKN250,0.00,VWS V14.01,2013-12-31 17:48:00,
2013-12-31 12:53:00,22.6,10.4,30.05,SSW,211,7.0,17.0,59,0.00,,BKN250,0.00,VWS V14.01,2013-12-31 17:53:00,
2013-12-31 12:58:00,22.9,11.1,30.05,SSW,211,3.0,8.0,60,0.00,,BKN250,0.00,VWS V14.01,2013-12-31 17:58:00,
2013-12-31 13:03:00,23.0,11.2,30.05,SSW,211,1.0,3.0,60,0.00,,OVC050,0.00,VWS V14.01,2013-12-31 18:03:00,
2013-12-31 13:08:00,23.0,10.8,30.05,SSW,211,7.0,23.0,59,0.00,,OVC050,0.00,VWS V14.01,2013-12-31 18:08:00,
2013-12-31 13:13:00,22.7,10.9,30.05,SSW,211,0.0,16.0,60,0.00,,OVC050,0.00,VWS V14.01,2013-12-31 18:13:00,
2013-12-31 13:18:00,22.6,10.8,30.05,SSW,211,12.0,12.0,60,0.00,,OVC050,0.00,VWS V14.01,2013-12-31 18:18:00,
2013-12-31 13:23:00,22.7,10.9,30.05,SSW,211,4.0,14.0,60,0.00,,OVC050,0.00,VWS V14.01,2013-12-31 18:23:00,
2013-12-31 13:28:00,22.7,10.9,30.05,SSW,211,1.0,16.0,60,0.00,,OVC050,0.00,VWS V14.01,2013-12-31 18:28:00,
2013-12-31 13:33:00,22.9,11.1,30.05,SSW,211,0.0,12.0,60,0.00,,OVC050,0.00,VWS V14.01,2013-12-31 18:33:00,
2013-12-31 13:38:00,23.2,11.8,30.05,SSW,211,0.0,3.0,61,0.00,,OVC050,0.00,VWS V14.01,2013-12-31 18:38:00,
2013-12-31 13:44:00,23.2,11.8,30.05,SSW,211,8.0,8.0,61,0.00,,OVC050,0.00,VWS V14.01,2013-12-31 18:44:00,
2013-12-31 13:49:00,23.2,11.8,30.05,SSW,211,7.0,7.0,61,0.00,,OVC050,0.00,VWS V14.01,2013-12-31 18:49:00,
2013-12-31 13:54:00,23.0,11.6,30.05,SSW,211,1.0,7.0,61,0.00,,OVC050,0.00,VWS V14.01,2013-12-31 18:54:00,
2013-12-31 13:59:00,23.2,11.8,30.05,SSW,211,5.0,6.0,61,0.00,,OVC050,0.00,VWS V14.01,2013-12-31 18:59:00,
2013-12-31 14:04:00,22.9,11.5,30.05,SSW,211,3.0,19.0,61,0.00,,BKN055,0.00,VWS V14.01,2013-12-31 19:04:00,
2013-12-31 14:09:00,22.9,11.8,30.06,SSW,211,0.0,14.0,62,0.00,,BKN055,0.00,VWS V14.01,2013-12-31 19:09:00,
2013-12-31 14:14:00,22.9,12.2,30.06,SSW,211,4.0,4.0,63,0.00,,BKN055,0.00,VWS V14.01,2013-12-31 19:14:00,
2013-12-31 14:19:00,23.0,12.3,30.06,SSW,211,9.0,12.0,63,0.00,,BKN055,0.00,VWS V14.01,2013-12-31 19:19:00,
2013-12-31 14:24:00,23.0,11.9,30.06,SSW,211,0.0,25.0,62,0.00,,BKN055,0.00,VWS V14.01,2013-12-31 19:24:00,
2013-12-31 14:29:00,23.2,12.5,30.06,SSW,211,0.0,18.0,63,0.00,,BKN055,0.00,VWS V14.01,2013-12-31 19:29:00,
2013-12-31 14:34:00,23.3,12.9,30.06,SSW,211,0.0,7.0,64,0.00,,BKN055,0.00,VWS V14.01,2013-12-31 19:34:00,
2013-12-31 14:39:00,23.3,12.9,30.07,SSW,211,2.0,9.0,64,0.00,,BKN055,0.00,VWS V14.01,2013-12-31 19:39:00,
2013-12-31 14:44:00,23.2,13.2,30.07,SSW,211,16.0,22.0,65,0.00,,BKN055,0.00,VWS V14.01,2013-12-31 19:44:00,
2013-12-31 14:49:00,23.2,13.2,30.07,SSW,211,7.0,24.0,65,0.00,,BKN055,0.00,VWS V14.01,2013-12-31 19:49:00,
2013-12-31 14:54:00,23.2,13.2,30.07,SSW,211,0.0,6.0,65,0.00,,BKN055,0.00,VWS V14.01,2013-12-31 19:54:00,
2013-12-31 14:59:00,23.3,13.3,30.08,SSW,211,3.0,3.0,65,0.00,,BKN055,0.00,VWS V14.01,2013-12-31 19:59:00,
2013-12-31 15:04:00,23.5,13.1,30.07,SSW,211,17.0,17.0,64,0.00,,OVC055,0.00,VWS V14.01,2013-12-31 20:04:00,
2013-12-31 15:09:00,23.5,13.1,30.07,SSW,211,4.0,18.0,64,0.00,,OVC055,0.00,VWS V14.01,2013-12-31 20:09:00,
2013-12-31 15:14:00,23.6,13.2,30.07,SSW,211,6.0,10.0,64,0.00,,OVC055,0.00,VWS V14.01,2013-12-31 20:14:00,
2013-12-31 15:19:00,23.9,13.1,30.07,SSW,211,13.0,17.0,63,0.00,,OVC055,0.00,VWS V14.01,2013-12-31 20:19:00,
2013-12-31 15:24:00,23.9,13.9,30.07,SSW,211,5.0,13.0,65,0.00,,OVC055,0.00,VWS V14.01,2013-12-31 20:24:00,
2013-12-31 15:29:00,24.1,14.1,30.07,SSW,211,0.0,4.0,65,0.00,,OVC055,0.00,VWS V14.01,2013-12-31 20:29:00,
2013-12-31 15:35:00,24.2,14.5,30.07,SSW,211,0.0,6.0,66,0.00,,OVC055,0.00,VWS V14.01,2013-12-31 20:35:00,
2013-12-31 15:40:00,24.2,14.1,30.08,SSW,211,0.0,4.0,65,0.00,,OVC055,0.00,VWS V14.01,2013-12-31 20:40:00,
2013-12-31 15:45:00,24.1,14.1,30.08,SSW,211,0.0,6.0,65,0.00,,OVC055,0.00,VWS V14.01,2013-12-31 20:45:00,
2013-12-31 15:50:00,24.1,14.1,30.08,SSW,211,0.0,0.0,65,0.00,,OVC055,0.00,VWS V14.01,2013-12-31 20:50:00,
2013-12-31 15:55:00,24.1,14.1,30.08,SSW,211,0.0,0.0,65,0.00,,OVC055,0.00,VWS V14.01,2013-12-31 20:55:00,
2013-12-31 16:00:00,23.9,13.5,30.08,SSW,211,9.0,12.0,64,0.00,,OVC055,0.00,VWS V14.01,2013-12-31 21:00:00,
2013-12-31 16:05:00,23.9,13.5,30.08,SSW,211,1.0,9.0,64,0.00,,BKN055,0.00,VWS V14.01,2013-12-31 21:05:00,
2013-12-31 16:10:00,23.8,13.4,30.09,SSW,211,0.0,2.0,64,0.00,,BKN055,0.00,VWS V14.01,2013-12-31 21:10:00,
2013-12-31 16:15:00,23.6,13.6,30.09,SSW,211,6.0,6.0,65,0.00,,BKN055,0.00,VWS V14.01,2013-12-31 21:15:00,
2013-12-31 16:20:00,23.5,13.5,30.10,SSW,211,0.0,8.0,65,0.00,,BKN055,0.00,VWS V14.01,2013-12-31 21:20:00,
2013-12-31 16:25:00,23.3,13.3,30.09,SSW,211,0.0,5.0,65,0.00,,BKN055,0.00,VWS V14.01,2013-12-31 21:25:00,
2013-12-31 16:30:00,23.2,13.2,30.09,SSW,211,0.0,0.0,65,0.00,,BKN055,0.00,VWS V14.01,2013-12-31 21:30:00,
2013-12-31 16:35:00,23.0,13.4,30.09,SSW,211,0.0,0.0,66,0.00,,BKN055,0.00,VWS V14.01,2013-12-31 21:35:00,
2013-12-31 16:40:00,22.9,13.3,30.10,SSW,211,0.0,0.0,66,0.00,,BKN055,0.00,VWS V14.01,2013-12-31 21:40:00,
2013-12-31 16:45:00,22.7,13.4,30.09,SSW,211,2.0,2.0,67,0.00,,BKN055,0.00,VWS V14.01,2013-12-31 21:45:00,
2013-12-31 16:50:00,22.7,13.4,30.09,SSW,211,0.0,3.0,67,0.00,,BKN055,0.00,VWS V14.01,2013-12-31 21:50:00,
2013-12-31 16:55:00,22.7,13.4,30.09,SSW,211,0.0,0.0,67,0.00,,BKN055,0.00,VWS V14.01,2013-12-31 21:55:00,
2013-12-31 17:00:00,22.9,13.9,30.10,SSW,211,0.0,2.0,68,0.00,,BKN055,0.00,VWS V14.01,2013-12-31 22:00:00,
2013-12-31 17:05:00,22.9,13.9,30.10,SSW,211,0.0,4.0,68,0.00,,SCT055,0.00,VWS V14.01,2013-12-31 22:05:00,
2013-12-31 17:10:00,23.0,14.0,30.10,SSW,211,0.0,10.0,68,0.00,,SCT055,0.00,VWS V14.01,2013-12-31 22:10:00,
2013-12-31 17:15:00,23.2,14.2,30.10,SSW,211,3.0,7.0,68,0.00,,SCT055,0.00,VWS V14.01,2013-12-31 22:15:00,
2013-12-31 17:20:00,23.2,14.9,30.10,SSW,211,0.0,5.0,70,0.00,,SCT055,0.00,VWS V14.01,2013-12-31 22:20:00,
2013-12-31 17:25:00,23.2,15.8,30.11,SSW,211,9.0,14.0,73,0.00,,SCT055,0.00,VWS V14.01,2013-12-31 22:25:00,
2013-12-31 17:30:00,22.9,16.8,30.11,SSW,211,16.0,21.0,77,0.00,,SCT055,0.00,VWS V14.01,2013-12-31 22:30:00,
2013-12-31 17:35:00,22.6,17.7,30.11,SSW,211,9.0,9.0,81,0.00,,SCT055,0.00,VWS V14.01,2013-12-31 22:35:00,
2013-12-31 17:40:00,22.3,18.2,30.10,SSW,211,15.0,15.0,84,0.00,,SCT055,0.00,VWS V14.01,2013-12-31 22:40:00,
2013-12-31 17:45:00,22.1,18.3,30.10,SSW,211,2.0,14.0,85,0.00,,SCT055,0.00,VWS V14.01,2013-12-31 22:45:00,
2013-12-31 17:50:00,21.9,18.4,30.10,SSW,211,2.0,11.0,86,0.00,,SCT055,0.00,VWS V14.01,2013-12-31 22:50:00,
2013-12-31 17:55:00,21.8,18.3,30.10,SSW,211,0.0,0.0,86,0.00,,SCT055,0.00,VWS V14.01,2013-12-31 22:55:00,
2013-12-31 18:00:00,21.6,18.1,30.10,SSW,211,0.0,4.0,86,0.00,,SCT055,0.00,VWS V14.01,2013-12-31 23:00:00,
2013-12-31 18:05:00,21.5,18.0,30.10,SSW,211,0.0,0.0,86,0.00,,BKN060,0.00,VWS V14.01,2013-12-31 23:05:00,
2013-12-31 18:10:00,21.3,18.0,30.10,SSW,211,0.0,0.0,87,0.00,,BKN060,0.00,VWS V14.01,2013-12-31 23:10:00,
2013-12-31 18:15:00,21.2,17.9,30.10,SSW,211,0.0,9.0,87,0.00,,BKN060,0.00,VWS V14.01,2013-12-31 23:15:00,
2013-12-31 18:20:00,21.0,17.8,30.10,SSW,211,0.0,0.0,87,0.00,,BKN060,0.00,VWS V14.01,2013-12-31 23:20:00,
2013-12-31 18:26:00,20.8,17.5,30.10,SSW,211,0.0,0.0,87,0.00,,BKN060,0.00,VWS V14.01,2013-12-31 23:26:00,
2013-12-31 18:31:00,20.8,17.8,30.10,SSW,211,0.0,2.0,88,0.00,,BKN060,0.00,VWS V14.01,2013-12-31 23:31:00,
2013-12-31 18:36:00,20.8,17.8,30.10,SSW,211,0.0,0.0,88,0.00,,BKN060,0.00,VWS V14.01,2013-12-31 23:36:00,
2013-12-31 18:41:00,20.8,17.8,30.10,SSW,211,0.0,2.0,88,0.00,,BKN060,0.00,VWS V14.01,2013-12-31 23:41:00,
2013-12-31 18:46:00,20.8,17.5,30.11,SSW,211,0.0,0.0,87,0.00,,BKN060,0.00,VWS V14.01,2013-12-31 23:46:00,
2013-12-31 18:51:00,20.7,17.5,30.11,SSW,211,0.0,0.0,87,0.00,,BKN060,0.00,VWS V14.01,2013-12-31 23:51:00,
2013-12-31 18:56:00,20.5,17.2,30.12,SSW,211,0.0,0.0,87,0.00,,BKN060,0.00,VWS V14.01,2013-12-31 23:56:00,
2013-12-31 19:01:00,20.4,17.2,30.13,SSW,211,0.0,0.0,87,0.00,,BKN060,0.00,VWS V14.01,2014-01-01 00:01:00,
2013-12-31 19:06:00,20.2,17.0,30.13,SSW,211,0.0,1.0,87,0.00,,FEW036,0.00,VWS V14.01,2014-01-01 00:06:00,
2013-12-31 19:11:00,20.4,17.4,30.13,SSW,211,0.0,0.0,88,0.00,,FEW036,0.00,VWS V14.01,2014-01-01 00:11:00,
2013-12-31 19:16:00,20.5,17.8,30.14,SSW,211,0.0,0.0,89,0.00,,FEW036,0.00,VWS V14.01,2014-01-01 00:16:00,
2013-12-31 19:21:00,20.7,17.7,30.14,SSW,211,0.0,0.0,88,0.00,,FEW036,0.00,VWS V14.01,2014-01-01 00:21:00,
2013-12-31 19:26:00,20.7,17.7,30.14,SSW,211,0.0,0.0,88,0.00,,FEW036,0.00,VWS V14.01,2014-01-01 00:26:00,
2013-12-31 19:31:00,20.8,17.8,30.14,SSW,211,0.0,0.0,88,0.00,,FEW036,0.00,VWS V14.01,2014-01-01 00:31:00,
2013-12-31 19:36:00,21.0,18.0,30.15,SSW,211,0.0,0.0,88,0.00,,FEW036,0.00,VWS V14.01,2014-01-01 00:36:00,
2013-12-31 19:41:00,21.0,17.8,30.15,SSW,211,0.0,0.0,87,0.00,,FEW036,0.00,VWS V14.01,2014-01-01 00:41:00,
2013-12-31 19:46:00,21.0,17.8,30.16,SSW,211,0.0,0.0,87,0.00,,FEW036,0.00,VWS V14.01,2014-01-01 00:46:00,
2013-12-31 19:51:00,20.8,17.3,30.16,SSW,211,0.0,0.0,86,0.00,,FEW036,0.00,VWS V14.01,2014-01-01 00:51:00,
2013-12-31 19:56:00,20.8,17.5,30.16,SSW,211,0.0,0.0,87,0.00,,FEW036,0.00,VWS V14.01,2014-01-01 00:56:00,
2013-12-31 20:01:00,20.7,17.2,30.16,SSW,211,0.0,0.0,86,0.00,,FEW036,0.00,VWS V14.01,2014-01-01 01:01:00,
2013-12-31 20:06:00,20.7,17.2,30.17,SSW,211,0.0,2.0,86,0.00,,BKN048,0.00,VWS V14.01,2014-01-01 01:06:00,
2013-12-31 20:11:00,20.5,17.0,30.17,SSW,211,0.0,0.0,86,0.00,,BKN048,0.00,VWS V14.01,2014-01-01 01:11:00,
2013-12-31 20:16:00,20.5,16.7,30.17,SSW,211,0.0,0.0,85,0.00,,BKN048,0.00,VWS V14.01,2014-01-01 01:16:00,
2013-12-31 20:21:00,20.4,16.4,30.17,SSW,211,0.0,0.0,84,0.00,,BKN048,0.00,VWS V14.01,2014-01-01 01:21:00,
2013-12-31 20:26:00,20.0,15.9,30.17,SSW,211,0.0,0.0,84,0.00,,BKN048,0.00,VWS V14.01,2014-01-01 01:26:00,
2013-12-31 20:31:00,19.6,15.6,30.17,SSW,211,0.0,0.0,84,0.00,,BKN048,0.00,VWS V14.01,2014-01-01 01:31:00,
2013-12-31 20:36:00,19.3,15.5,30.17,SSW,211,0.0,0.0,85,0.00,,BKN048,0.00,VWS V14.01,2014-01-01 01:36:00,
2013-12-31 20:42:00,19.1,15.3,30.17,SSW,211,0.0,0.0,85,0.00,,BKN048,0.00,VWS V14.01,2014-01-01 01:42:00,
2013-12-31 20:47:00,18.9,15.1,30.17,SSW,211,0.0,0.0,85,0.00,,BKN048,0.00,VWS V14.01,2014-01-01 01:47:00,
2013-12-31 20:52:00,19.1,15.3,30.18,SSW,211,0.0,0.0,85,0.00,,BKN048,0.00,VWS V14.01,2014-01-01 01:52:00,
2013-12-31 20:57:00,19.1,15.3,30.18,SSW,211,0.0,0.0,85,0.00,,BKN048,0.00,VWS V14.01,2014-01-01 01:57:00,
2013-12-31 21:02:00,19.1,15.1,30.18,SSW,211,0.0,0.0,84,0.00,,BKN048,0.00,VWS V14.01,2014-01-01 02:02:00,
2013-12-31 21:07:00,18.9,14.9,30.18,SSW,211,0.0,0.0,84,0.00,,FEW035,0.00,VWS V14.01,2014-01-01 02:07:00,
2013-12-31 21:12:00,18.8,14.8,30.19,SSW,211,0.0,0.0,84,0.00,,FEW035,0.00,VWS V14.01,2014-01-01 02:12:00,
2013-12-31 21:17:00,18.8,14.5,30.19,SSW,211,0.0,0.0,83,0.00,,FEW035,0.00,VWS V14.01,2014-01-01 02:17:00,
2013-12-31 21:22:00,18.9,14.6,30.19,SSW,211,0.0,0.0,83,0.00,,FEW035,0.00,VWS V14.01,2014-01-01 02:22:00,
2013-12-31 21:27:00,18.9,14.3,30.19,SSW,211,0.0,0.0,82,0.00,,FEW035,0.00,VWS V14.01,2014-01-01 02:27:00,
2013-12-31 21:32:00,18.6,14.0,30.20,SSW,211,0.0,0.0,82,0.00,,FEW035,0.00,VWS V14.01,2014-01-01 02:32:00,
2013-12-31 21:37:00,18.6,14.3,30.20,SSW,211,0.0,0.0,83,0.00,,FEW035,0.00,VWS V14.01,2014-01-01 02:37:00,
2013-12-31 21:42:00,18.8,14.5,30.20,SSW,211,0.0,0.0,83,0.00,,FEW035,0.00,VWS V14.01,2014-01-01 02:42:00,
2013-12-31 21:47:00,18.8,14.2,30.20,SSW,211,0.0,0.0,82,0.00,,FEW035,0.00,VWS V14.01,2014-01-01 02:47:00,
2013-12-31 21:52:00,18.9,14.3,30.20,SSW,211,0.0,0.0,82,0.00,,FEW035,0.00,VWS V14.01,2014-01-01 02:52:00,
2013-12-31 21:57:00,18.9,14.3,30.20,SSW,211,0.0,0.0,82,0.00,,FEW035,0.00,VWS V14.01,2014-01-01 02:57:00,
2013-12-31 22:02:00,18.8,14.2,30.20,SSW,211,0.0,0.0,82,0.00,,FEW035,0.00,VWS V14.01,2014-01-01 03:02:00,
2013-12-31 22:07:00,18.6,14.0,30.21,SSW,211,0.0,0.0,82,0.00,,CLR,0.00,VWS V14.01,2014-01-01 03:07:00,
2013-12-31 22:12:00,18.6,14.0,30.21,SSW,211,0.0,0.0,82,0.00,,CLR,0.00,VWS V14.01,2014-01-01 03:12:00,
2013-12-31 22:17:00,18.6,14.0,30.21,SSW,211,0.0,0.0,82,0.00,,CLR,0.00,VWS V14.01,2014-01-01 03:17:00,
2013-12-31 22:22:00,18.5,13.9,30.21,SSW,211,0.0,0.0,82,0.00,,CLR,0.00,VWS V14.01,2014-01-01 03:22:00,
2013-12-31 22:27:00,18.5,13.9,30.21,SSW,211,0.0,0.0,82,0.00,,CLR,0.00,VWS V14.01,2014-01-01 03:27:00,
2013-12-31 22:32:00,18.6,13.8,30.22,SSW,211,0.0,0.0,81,0.00,,CLR,0.00,VWS V14.01,2014-01-01 03:32:00,
2013-12-31 22:37:00,18.6,13.8,30.22,SSW,211,0.0,0.0,81,0.00,,CLR,0.00,VWS V14.01,2014-01-01 03:37:00,
2013-12-31 22:42:00,18.9,14.0,30.22,SSW,211,0.0,0.0,81,0.00,,CLR,0.00,VWS V14.01,2014-01-01 03:42:00,
2013-12-31 22:47:00,19.1,14.2,30.22,SSW,211,0.0,0.0,81,0.00,,CLR,0.00,VWS V14.01,2014-01-01 03:47:00,
2013-12-31 22:52:00,19.3,14.1,30.22,SSW,211,0.0,0.0,80,0.00,,CLR,0.00,VWS V14.01,2014-01-01 03:52:00,
2013-12-31 22:57:00,19.4,14.2,30.22,SSW,211,0.0,0.0,80,0.00,,CLR,0.00,VWS V14.01,2014-01-01 03:57:00,
2013-12-31 23:02:00,19.6,14.2,30.23,SSW,211,0.0,0.0,79,0.00,,CLR,0.00,VWS V14.01,2014-01-01 04:02:00,
2013-12-31 23:07:00,19.6,14.2,30.23,SSW,211,0.0,0.0,79,0.00,,CLR,0.00,VWS V14.01,2014-01-01 04:07:00,
2013-12-31 23:12:00,19.6,14.2,30.23,SSW,211,0.0,0.0,79,0.00,,CLR,0.00,VWS V14.01,2014-01-01 04:12:00,
2013-12-31 23:17:00,19.7,14.0,30.23,SSW,211,0.0,0.0,78,0.00,,CLR,0.00,VWS V14.01,2014-01-01 04:17:00,
2013-12-31 23:23:00,19.7,14.0,30.24,SSW,211,0.0,0.0,78,0.00,,CLR,0.00,VWS V14.01,2014-01-01 04:23:00,
2013-12-31 23:28:00,19.9,13.9,30.24,SSW,211,0.0,0.0,77,0.00,,CLR,0.00,VWS V14.01,2014-01-01 04:28:00,
2013-12-31 23:33:00,19.9,13.9,30.24,SSW,211,0.0,0.0,77,0.00,,CLR,0.00,VWS V14.01,2014-01-01 04:33:00,
2013-12-31 23:38:00,20.0,14.0,30.24,SSW,211,0.0,0.0,77,0.00,,CLR,0.00,VWS V14.01,2014-01-01 04:38:00,
2013-12-31 23:43:00,20.0,13.4,30.24,SSW,211,0.0,0.0,75,0.00,,CLR,0.00,VWS V14.01,2014-01-01 04:43:00,
2013-12-31 23:48:00,20.0,13.1,30.24,SSW,211,2.0,10.0,74,0.00,,CLR,0.00,VWS V14.01,2014-01-01 04:48:00,
2013-12-31 23:53:00,19.9,12.7,30.24,SSW,211,0.0,0.0,73,0.00,,CLR,0.00,VWS V14.01,2014-01-01 04:53:00,
2013-12-31 23:58:00,19.7,12.1,30.24,SSW,211,0.0,0.0,72,0.00,,CLR,0.00,VWS V14.01,2014-01-01 04:58:00,